User: anonymous   Login
Location: Unspecified
(0.0000°N, 0.0000°E)
Time: 21:51:28
(UTC+00:00)
Language:

CALIPSO - Orbit

View from above orbital plane
View from above orbital plane
View from above satellite
View from above satellite

Ground track
Ground track

The orbit data is extracted from the following two-line orbital elements,

1 29108U 06016B   19079.89933166 +.00000088 +00000-0 +26808-4 0  9998
2 29108 098.1789 025.0651 0001323 082.6312 277.5040 14.62309177685884
Epoch (UTC): 20 March 2019 21:35:02
Eccentricity: 0.0001323
inclination: 98.1789°
perigee height: 685 km
apogee height: 686 km
right ascension of ascending node: 25.0651°
argument of perigee: 82.6312°
revolutions per day: 14.62309177
mean anomaly at epoch: 277.5040°
orbit number at epoch: 68588

The dashed part of the orbit path shows where the satellite is in the earth's shadow,  

DLR